Location: Newark
(44.1667°N, 8.2500°E)
Time: 13:06:00
(UTC+00:00)

Vanguard 2 - Pass Details

Date: 09 December 2019
Orbit: 553 x 2938 km, 32.9° (Epoch: 18 January)

Event Time Altitude Azimuth Distance (km) Brightness Sun altitude
Exits shadow 01:34:58 43° 135° (SE) 3,711 10.8 -54.9°
Drops below altitude 10° 01:47:30 10° 94° (E) 5,484 12.2 -52.9°
Sets 01:51:37 0° 88° (E) 6,295 12.7 -52.2°
